Alma, MI

6:23 AM EST on December 06, 2019 (GMT -0500)
Gratiot Community

Weather History for KAMN - November, 2019

Change the Weather History Date:

Saturday, November 16, 2019

  Actual Average Record
Temperature  
Mean Temperature 25 °F -  
Max Temperature 31 °F 45 °F 69 °F (1990)
Min Temperature 19 °F 27 °F 10 °F (1997)
Degree Days  
Heating Degree Days 40    
Moisture  
Dew Point 15 °F    
Average Humidity 69    
Maximum Humidity 83    
Minimum Humidity 41    
Precipitation  
Precipitation 0.00 in - - ()
Sea Level Pressure  
Sea Level Pressure 30.44 in    
Wind  
Wind Speed 5 mph (ENE)    
Max Wind Speed 9 mph    
Max Gust Speed -    
Visibility 10 miles    
Events      
Averages and records for this station are not official NWS values.
T = Trace of Precipitation, MM = Missing Value Source: NWS Daily Summary

Daily Weather History Graph

Daily Weather History Graph

Search for Another Location

Airport or City:

Astronomy

Nov. 16, 2019 Rise Set
Actual Time 7:32 AM EST 5:13 PM EST
Civil Twilight 7:02 AM EST 5:44 PM EST
Nautical Twilight 6:27 AM EST 6:18 PM EST
Astronomical Twilight 5:53 AM EST 6:52 PM EST
Moon 8:42 PM EST (11/16) 11:29 AM EST (11/16)
Length of Visible Light 10h 42m
Length of Day
9h 40m
Waning Gibbous, 82% of the Moon is Illuminated
Nov 16
Waning Gibbous
Nov 19
Last Quarter
Nov 26
New
Dec 4
First Quarter
Dec 12
Full

Hourly Weather History & Observations

Time (EST) Temp. Windchill Dew Point Humidity Pressure Visibility Wind Dir Wind Speed Gust Speed Precip Events Conditions
12:15 AM 25.3 °F 19.7 °F 19.9 °F 80% 30.47 in 10.0 mi NE 4.6 mph - N/A   Clear
12:16 AM 25.3 °F 18.5 °F 19.9 °F 80% 30.47 in 10.0 mi NE 5.8 mph - N/A   Clear
12:35 AM 25.5 °F 19.9 °F 20.1 °F 80% 30.48 in 10.0 mi NE 4.6 mph - N/A   Clear
12:55 AM 25.7 °F 17.1 °F 19.9 °F 79% 30.48 in 10.0 mi NE 8.1 mph - N/A   Clear
1:15 AM 24.8 °F 16.9 °F 19.2 °F 79% 30.49 in 10.0 mi ENE 6.9 mph - N/A   Clear
1:35 AM 24.8 °F 16.9 °F 19.2 °F 79% 30.48 in 10.0 mi NE 6.9 mph - N/A   Clear
1:36 AM 25.0 °F 17.1 °F 19.2 °F 79% 30.48 in 10.0 mi NE 6.9 mph - N/A   Clear
1:55 AM 24.4 °F 16.5 °F 18.9 °F 79% 30.48 in 10.0 mi ENE 6.9 mph - N/A   Clear
1:56 AM 24.4 °F 16.5 °F 18.9 °F 79% 30.48 in 10.0 mi ENE 6.9 mph - N/A   Clear
2:15 AM 24.3 °F 14.6 °F 18.5 °F 79% 30.48 in 10.0 mi ENE 9.2 mph - N/A   Clear
2:16 AM 24.3 °F 14.6 °F 18.5 °F 79% 30.48 in 10.0 mi ENE 9.2 mph - N/A   Clear
2:35 AM 23.9 °F 18.0 °F 18.5 °F 80% 30.48 in 10.0 mi NE 4.6 mph - N/A   Clear
2:36 AM 23.9 °F 16.8 °F 18.5 °F 80% 30.48 in 10.0 mi NE 5.8 mph - N/A   Clear
2:55 AM 23.0 °F 18.4 °F 17.8 °F 80% 30.48 in 10.0 mi NE 3.5 mph - N/A   Clear
3:15 AM 22.6 °F - 16.9 °F 79% 30.48 in 10.0 mi Calm Calm - N/A   Clear
3:16 AM 22.6 °F - 16.9 °F 79% 30.48 in 10.0 mi Calm Calm - N/A   Clear
3:35 AM 22.1 °F 17.4 °F 16.3 °F 79% 30.48 in 10.0 mi NNE 3.5 mph - N/A   Clear
3:55 AM 22.1 °F 17.4 °F 16.2 °F 78% 30.48 in 10.0 mi NNE 3.5 mph - N/A   Clear
3:56 AM 22.1 °F 17.4 °F 16.0 °F 77% 30.48 in 10.0 mi NNE 3.5 mph - N/A   Clear
4:15 AM 21.7 °F 17.0 °F 15.4 °F 77% 30.48 in 10.0 mi NNE 3.5 mph - N/A   Clear
4:16 AM 21.6 °F 16.8 °F 15.4 °F 77% 30.48 in 10.0 mi North 3.5 mph - N/A   Clear
4:35 AM 21.2 °F 16.4 °F 14.5 °F 75% 30.48 in 10.0 mi North 3.5 mph - N/A   Clear
4:55 AM 20.8 °F 16.0 °F 13.8 °F 74% 30.48 in 10.0 mi North 3.5 mph - N/A   Clear
4:56 AM 20.8 °F 16.0 °F 13.6 °F 74% 30.48 in 10.0 mi North 3.5 mph - N/A   Clear
5:15 AM 20.7 °F 15.8 °F 13.6 °F 74% 30.49 in 10.0 mi NNE 3.5 mph - N/A   Clear
5:16 AM 20.7 °F 15.8 °F 13.6 °F 74% 30.49 in 10.0 mi NNE 3.5 mph - N/A   Clear
5:35 AM 20.1 °F 15.2 °F 13.8 °F 77% 30.49 in 10.0 mi North 3.5 mph - N/A   Clear
5:36 AM 20.1 °F 15.2 °F 14.0 °F 77% 30.49 in 10.0 mi North 3.5 mph - N/A   Clear
5:55 AM 20.3 °F 15.4 °F 14.2 °F 77% 30.49 in 10.0 mi North 3.5 mph - N/A   Clear
5:56 AM 20.3 °F 13.8 °F 14.4 °F 78% 30.50 in 10.0 mi North 4.6 mph - N/A   Clear
6:15 AM 20.1 °F 13.6 °F 14.2 °F 78% 30.50 in 10.0 mi North 4.6 mph - N/A   Clear
6:35 AM 19.8 °F 14.7 °F 14.0 °F 78% 30.49 in 10.0 mi NNE 3.5 mph - N/A   Clear
6:55 AM 19.6 °F - 14.0 °F 79% 30.49 in 10.0 mi Calm Calm - N/A   Clear
6:56 AM 19.4 °F 14.3 °F 14.0 °F 80% 30.49 in 10.0 mi NNE 3.5 mph - N/A   Clear
7:15 AM 19.4 °F 14.3 °F 13.8 °F 79% 30.50 in 10.0 mi NNE 3.5 mph - N/A   Clear
7:16 AM 19.2 °F 14.1 °F 13.8 °F 80% 30.50 in 10.0 mi NNE 3.5 mph - N/A   Clear
7:35 AM 19.4 °F 14.3 °F 14.0 °F 80% 30.51 in 10.0 mi NNE 3.5 mph - N/A   Clear
7:36 AM 19.4 °F - 14.2 °F 80% 30.51 in 10.0 mi Calm Calm - N/A   Clear
7:55 AM 19.0 °F - 14.2 °F 81% 30.51 in 10.0 mi Calm Calm - N/A   Clear
8:15 AM 19.9 °F - 14.9 °F 81% 30.51 in 10.0 mi Calm Calm - N/A   Clear
8:35 AM 21.4 °F - 15.6 °F 78% 30.52 in 10.0 mi Calm Calm - N/A   Clear
8:36 AM 21.6 °F - 15.6 °F 78% 30.52 in 10.0 mi Calm Calm - N/A   Clear
8:55 AM 22.6 °F 18.0 °F 16.2 °F 76% 30.52 in 10.0 mi ENE 3.5 mph - N/A   Clear
9:16 AM 23.9 °F 19.5 °F 17.1 °F 75% 30.52 in 10.0 mi NE 3.5 mph - N/A   Clear
9:35 AM 25.0 °F 20.7 °F 18.0 °F 75% 30.52 in 10.0 mi NE 3.5 mph - N/A   Clear
9:55 AM 27.1 °F 21.8 °F 18.1 °F 69% 30.52 in 10.0 mi ENE 4.6 mph - N/A   Clear
10:15 AM 28.8 °F 23.7 °F 18.3 °F 65% 30.52 in 10.0 mi ESE 4.6 mph - N/A   Clear
10:16 AM 28.9 °F 22.8 °F 18.3 °F 65% 30.52 in 10.0 mi ESE 5.8 mph - N/A   Clear
10:35 AM 29.1 °F 24.1 °F 16.3 °F 59% 30.52 in 10.0 mi East 4.6 mph - N/A   Clear
10:55 AM 29.1 °F 23.0 °F 17.4 °F 62% 30.52 in 10.0 mi East 5.8 mph - N/A   Clear
11:35 AM 28.9 °F 23.9 °F 17.2 °F 62% 30.51 in 10.0 mi ESE 4.6 mph - N/A   Clear
11:36 AM 28.9 °F 22.8 °F 17.1 °F 61% 30.51 in 10.0 mi East 5.8 mph - N/A   Clear
11:55 AM 29.5 °F 23.4 °F 17.4 °F 61% 30.50 in 10.0 mi SE 5.8 mph - N/A   Clear
12:15 PM 30.0 °F 23.2 °F 16.7 °F 58% 30.49 in 10.0 mi East 6.9 mph - N/A   Clear
12:16 PM 30.0 °F 22.4 °F 16.9 °F 58% 30.49 in 10.0 mi East 8.1 mph - N/A   Clear
12:35 PM 29.8 °F 23.0 °F 17.1 °F 59% 30.48 in 10.0 mi East 6.9 mph - N/A   Clear
12:55 PM 30.2 °F 22.6 °F 17.6 °F 60% 30.47 in 10.0 mi East 8.1 mph - N/A   Clear
1:15 PM 30.2 °F 23.4 °F 16.7 °F 57% 30.46 in 10.0 mi East 6.9 mph - N/A   Clear
1:16 PM 30.2 °F 23.4 °F 16.5 °F 57% 30.46 in 10.0 mi East 6.9 mph - N/A   Clear
1:35 PM 30.4 °F 23.6 °F 14.7 °F 52% 30.45 in 10.0 mi ENE 6.9 mph - N/A   Clear
1:55 PM 30.9 °F 24.3 °F 16.0 °F 54% 30.44 in 10.0 mi East 6.9 mph - N/A   Clear
2:15 PM 31.1 °F 24.5 °F 15.3 °F 52% 30.43 in 10.0 mi East 6.9 mph - N/A   Clear
2:35 PM 31.5 °F 23.5 °F 15.3 °F 51% 30.41 in 10.0 mi ENE 9.2 mph - N/A   Clear
2:55 PM 31.8 °F 24.6 °F 14.4 °F 49% 30.41 in 10.0 mi East 8.1 mph - N/A   Clear
3:15 PM 31.8 °F 24.6 °F 13.1 °F 46% 30.40 in 10.0 mi ENE 8.1 mph - N/A   Clear
3:35 PM 31.8 °F 25.4 °F 11.5 °F 43% 30.40 in 10.0 mi ENE 6.9 mph - N/A   Clear
3:55 PM 31.5 °F 24.2 °F 10.4 °F 42% 30.39 in 10.0 mi East 8.1 mph - N/A   Clear
3:56 PM 31.5 °F 24.2 °F 10.4 °F 42% 30.39 in 10.0 mi East 8.1 mph - N/A   Clear
4:15 PM 31.1 °F 24.5 °F 10.0 °F 41% 30.39 in 10.0 mi ENE 6.9 mph - N/A   Clear
4:35 PM 30.7 °F 24.1 °F 9.7 °F 41% 30.38 in 10.0 mi East 6.9 mph - N/A   Clear
4:36 PM 30.6 °F 23.8 °F 9.5 °F 41% 30.38 in 10.0 mi East 6.9 mph - N/A   Clear
4:55 PM 29.3 °F 22.3 °F 13.1 °F 51% 30.37 in 10.0 mi East 6.9 mph - N/A   Clear
5:15 PM 27.7 °F 21.3 °F 14.0 °F 57% 30.37 in 10.0 mi ENE 5.8 mph - N/A   Clear
5:35 PM 26.4 °F 20.9 °F 14.7 °F 61% 30.37 in 10.0 mi ENE 4.6 mph - N/A   Clear
5:36 PM 26.2 °F 20.7 °F 14.9 °F 62% 30.37 in 10.0 mi East 4.6 mph - N/A   Clear
5:55 PM 25.5 °F 18.7 °F 14.9 °F 64% 30.37 in 10.0 mi East 5.8 mph - N/A   Clear
6:15 PM 23.7 °F 16.6 °F 14.0 °F 66% 30.37 in 10.0 mi East 5.8 mph - N/A   Clear
6:35 PM 24.4 °F 17.5 °F 13.5 °F 63% 30.36 in 10.0 mi East 5.8 mph - N/A   Clear
6:55 PM 24.6 °F 20.3 °F 13.5 °F 63% 30.37 in 10.0 mi East 3.5 mph - N/A   Clear
7:15 PM 24.6 °F 16.7 °F 13.3 °F 62% 30.36 in 10.0 mi East 6.9 mph - N/A   Clear
7:35 PM 26.4 °F 19.8 °F 12.7 °F 56% 30.36 in 10.0 mi East 5.8 mph - N/A   Clear
7:55 PM 27.0 °F 20.5 °F 12.4 °F 54% 30.36 in 10.0 mi ESE 5.8 mph - N/A   Clear
7:56 PM 27.0 °F 21.6 °F 12.4 °F 54% 30.36 in 10.0 mi ESE 4.6 mph - N/A   Clear
8:15 PM 26.4 °F 20.9 °F 13.1 °F 57% 30.36 in 10.0 mi East 4.6 mph - N/A   Clear
8:35 PM 25.7 °F 18.0 °F 14.0 °F 61% 30.35 in 10.0 mi East 6.9 mph - N/A   Clear
8:36 PM 25.9 °F 19.2 °F 14.0 °F 61% 30.35 in 10.0 mi East 5.8 mph - N/A   Clear
8:55 PM 25.7 °F 19.0 °F 14.5 °F 63% 30.35 in 10.0 mi East 5.8 mph - N/A   Clear
9:15 PM 23.7 °F 15.6 °F 15.1 °F 70% 30.35 in 10.0 mi East 6.9 mph - N/A   Clear
9:16 PM 23.5 °F 16.4 °F 15.3 °F 71% 30.35 in 10.0 mi East 5.8 mph - N/A   Clear
9:35 PM 24.8 °F 17.9 °F 16.0 °F 69% 30.34 in 10.0 mi East 5.8 mph - N/A   Clear
9:55 PM 23.5 °F 17.6 °F 15.6 °F 72% 30.34 in 10.0 mi East 4.6 mph - N/A   Clear
9:56 PM 23.5 °F 17.6 °F 15.6 °F 72% 30.34 in 10.0 mi East 4.6 mph - N/A   Clear
10:15 PM 23.9 °F 18.0 °F 16.7 °F 74% 30.33 in 10.0 mi East 4.6 mph - N/A   Clear
10:35 PM 24.6 °F 18.8 °F 16.2 °F 70% 30.33 in 10.0 mi East 4.6 mph - N/A   Clear
10:55 PM 23.9 °F 18.0 °F 16.5 °F 73% 30.32 in 10.0 mi East 4.6 mph - N/A   Clear
11:15 PM 22.6 °F 16.5 °F 17.4 °F 80% 30.31 in 10.0 mi East 4.6 mph - N/A   Clear
11:35 PM 21.2 °F 14.9 °F 16.3 °F 82% 30.30 in 10.0 mi ENE 4.6 mph - N/A   Clear
11:36 PM 21.2 °F 14.9 °F 16.3 °F 82% 30.30 in 10.0 mi ENE 4.6 mph - N/A   Clear
11:55 PM 20.3 °F 12.5 °F 16.0 °F 83% 30.29 in 10.0 mi ENE 5.8 mph - N/A   Clear
11:56 PM 20.3 °F 12.5 °F 15.8 °F 83% 30.29 in 10.0 mi ENE 5.8 mph - N/A   Clear